Cumberland, WI

1:39 AM CST on December 14, 2019 (GMT -0600)
Cumberland Municipal

Weather History for KUBE - October, 2019

Change the Weather History Date:

Wednesday, October 16, 2019

  Actual Average (WUND) Record (WUND)
Temperature  
Mean Temperature 42 °F -  
Max Temperature 46 °F - - (-1)
Min Temperature 37 °F - - (-1)
Degree Days  
Heating Degree Days 24    
Moisture  
Dew Point 35 °F    
Average Humidity 79    
Maximum Humidity 100    
Minimum Humidity 57    
Precipitation  
Precipitation 0.00 in - - ()
Sea Level Pressure  
Sea Level Pressure 30.03 in    
Wind  
Wind Speed 10 mph (NW)    
Max Wind Speed 15 mph    
Max Gust Speed 22 mph    
Visibility 10 miles    
Events Rain    
Averages and records for this station are not official NWS values.
T = Trace of Precipitation, MM = Missing Value Source: NWS Daily Summary

Daily Weather History Graph

Daily Weather History Graph

Search for Another Location

Airport or City:

Astronomy

Oct. 16, 2019 Rise Set
Actual Time 7:25 AM CDT 6:20 PM CDT
Civil Twilight 6:55 AM CDT 6:50 PM CDT
Nautical Twilight 6:21 AM CDT 7:25 PM CDT
Astronomical Twilight 5:46 AM CDT 7:59 PM CDT
Moon 8:07 PM CDT (10/16) 10:02 AM CDT (10/16)
Length of Visible Light 11h 55m
Length of Day
10h 55m
Waning Gibbous, 92% of the Moon is Illuminated
Oct 16
Waning Gibbous
Oct 21
Last Quarter
Oct 27
New
Nov 4
First Quarter
Nov 12
Full

Hourly Weather History & Observations

Time (CDT) Temp. Windchill Dew Point Humidity Pressure Visibility Wind Dir Wind Speed Gust Speed Precip Events Conditions
12:15 AM 37.4 °F 28.9 °F 35.6 °F 93% 29.97 in 10.0 mi NNW 13.8 mph - N/A   Overcast
12:35 AM 37.4 °F 28.5 °F 35.6 °F 93% 29.98 in 10.0 mi NW 15.0 mph 21.9 mph N/A   Overcast
12:55 AM 37.4 °F 29.3 °F 35.6 °F 93% 29.98 in 10.0 mi NW 12.7 mph - N/A   Overcast
1:15 AM 37.4 °F 29.8 °F 35.6 °F 93% 29.98 in 10.0 mi NW 11.5 mph 16.1 mph N/A   Overcast
1:35 AM 37.4 °F 29.8 °F 35.6 °F 93% 29.99 in 10.0 mi NW 11.5 mph 18.4 mph N/A   Overcast
1:55 AM 37.4 °F 29.8 °F 35.6 °F 93% 29.99 in 10.0 mi NW 11.5 mph 16.1 mph N/A   Overcast
2:15 AM 37.4 °F 29.8 °F 35.6 °F 93% 30.00 in 10.0 mi WNW 11.5 mph - N/A   Overcast
2:35 AM 37.4 °F 28.9 °F 35.6 °F 93% 30.00 in 10.0 mi NW 13.8 mph 18.4 mph N/A   Overcast
2:55 AM 37.4 °F 30.3 °F 35.6 °F 93% 30.00 in 7.0 mi NW 10.4 mph - N/A   Overcast
3:35 AM 37.4 °F 29.3 °F 35.6 °F 93% 30.00 in 10.0 mi NNW 12.7 mph 17.3 mph N/A   Overcast
3:55 AM 37.4 °F 30.8 °F 35.6 °F 93% 30.00 in 10.0 mi NW 9.2 mph - N/A   Light Drizzle
4:15 AM 37.4 °F 30.8 °F 35.6 °F 93% 30.01 in 7.0 mi NW 9.2 mph - N/A Rain Light Rain
4:35 AM 37.4 °F 30.3 °F 37.4 °F 100% 30.01 in 7.0 mi NNW 10.4 mph - N/A Rain Light Rain
4:55 AM 39.2 °F 31.6 °F 37.4 °F 93% 30.02 in 10.0 mi NW 12.7 mph - N/A   Light Drizzle
5:15 AM 39.2 °F 31.2 °F 37.4 °F 93% 30.03 in 10.0 mi NW 13.8 mph - N/A   Overcast
5:35 AM 39.2 °F 33.0 °F 37.4 °F 93% 30.03 in 10.0 mi NW 9.2 mph - N/A   Overcast
5:55 AM 37.4 °F 29.8 °F 35.6 °F 93% 30.03 in 10.0 mi NNW 11.5 mph - N/A   Overcast
6:15 AM 39.2 °F 32.5 °F 35.6 °F 87% 30.03 in 10.0 mi NNW 10.4 mph - N/A   Overcast
6:35 AM 37.4 °F 29.3 °F 35.6 °F 93% 30.03 in 10.0 mi NNW 12.7 mph - N/A   Overcast
6:55 AM 37.4 °F 29.3 °F 35.6 °F 93% 30.03 in 10.0 mi NNW 12.7 mph - N/A   Overcast
7:15 AM 37.4 °F 30.3 °F 35.6 °F 93% 30.03 in 10.0 mi NNW 10.4 mph - N/A   Overcast
7:35 AM 37.4 °F 30.8 °F 35.6 °F 93% 30.03 in 10.0 mi NNW 9.2 mph 16.1 mph N/A   Overcast
7:55 AM 37.4 °F 30.3 °F 35.6 °F 93% 30.05 in 10.0 mi NW 10.4 mph - N/A   Overcast
8:15 AM 37.4 °F 30.8 °F 35.6 °F 93% 30.05 in 10.0 mi NNW 9.2 mph - N/A   Overcast
8:35 AM 37.4 °F 30.3 °F 35.6 °F 93% 30.05 in 10.0 mi NNW 10.4 mph - N/A   Overcast
9:15 AM 37.4 °F 30.8 °F 33.8 °F 87% 30.07 in 10.0 mi NNW 9.2 mph - N/A   Overcast
9:35 AM 37.4 °F 31.4 °F 33.8 °F 87% 30.07 in 10.0 mi NNW 8.1 mph - N/A   Overcast
9:55 AM 39.2 °F 32.5 °F 33.8 °F 81% 30.07 in 10.0 mi NNW 10.4 mph - N/A   Overcast
10:15 AM 41.0 °F 34.7 °F 35.6 °F 81% 30.08 in 10.0 mi NW 10.4 mph - N/A   Overcast
10:35 AM 41.0 °F 34.3 °F 33.8 °F 76% 30.07 in 10.0 mi NNW 11.5 mph - N/A   Overcast
10:55 AM 41.0 °F 35.2 °F 33.8 °F 76% 30.08 in 10.0 mi North 9.2 mph - N/A   Overcast
11:55 AM 44.6 °F 39.7 °F 33.8 °F 66% 30.08 in 10.0 mi NNW 9.2 mph - N/A   Mostly Cloudy
12:15 PM 44.6 °F 40.2 °F 32.0 °F 61% 30.08 in 10.0 mi NNW 8.1 mph - N/A   Mostly Cloudy
12:35 PM 44.6 °F 39.2 °F 33.8 °F 66% 30.06 in 10.0 mi NW 10.4 mph - N/A   Overcast
12:55 PM 44.6 °F 39.7 °F 32.0 °F 61% 30.06 in 10.0 mi NNW 9.2 mph - N/A   Overcast
1:15 PM 44.6 °F 40.2 °F 32.0 °F 61% 30.05 in 10.0 mi NNW 8.1 mph - N/A   Overcast
1:35 PM 44.6 °F 39.7 °F 32.0 °F 61% 30.05 in 10.0 mi North 9.2 mph - N/A   Overcast
1:55 PM 46.4 °F 41.9 °F 32.0 °F 57% 30.05 in 10.0 mi North 9.2 mph - N/A   Overcast
2:15 PM 46.4 °F 42.9 °F 32.0 °F 57% 30.05 in 10.0 mi NW 6.9 mph - N/A   Overcast
2:35 PM 46.4 °F 41.9 °F 32.0 °F 57% 30.04 in 10.0 mi NNW 9.2 mph - N/A   Overcast
2:55 PM 46.4 °F 41.9 °F 32.0 °F 57% 30.03 in 10.0 mi NW 9.2 mph - N/A   Overcast
3:15 PM 44.6 °F 41.4 °F 32.0 °F 61% 30.03 in 10.0 mi NNW 5.8 mph - N/A   Overcast
3:35 PM 44.6 °F 39.7 °F 33.8 °F 66% 30.03 in 10.0 mi WNW 9.2 mph - N/A   Overcast
3:55 PM 44.6 °F 40.2 °F 33.8 °F 66% 30.03 in 10.0 mi WNW 8.1 mph - N/A   Overcast
4:15 PM 44.6 °F 40.2 °F 33.8 °F 66% 30.03 in 10.0 mi NW 8.1 mph - N/A   Overcast
4:35 PM 44.6 °F 40.7 °F 33.8 °F 66% 30.03 in 10.0 mi NW 6.9 mph - N/A   Overcast
4:55 PM 44.6 °F 40.2 °F 32.0 °F 61% 30.03 in 10.0 mi NW 8.1 mph - N/A   Overcast
5:15 PM 44.6 °F 40.7 °F 32.0 °F 61% 30.03 in 10.0 mi NW 6.9 mph - N/A   Overcast
5:35 PM 44.6 °F 42.2 °F 32.0 °F 61% 30.03 in 10.0 mi WNW 4.6 mph - N/A   Overcast
5:55 PM 44.6 °F 41.4 °F 33.8 °F 66% 30.03 in 10.0 mi WNW 5.8 mph - N/A   Overcast
6:15 PM 42.8 °F 41.1 °F 33.8 °F 70% 30.03 in 10.0 mi NW 3.5 mph - N/A   Overcast
6:35 PM 42.8 °F 41.1 °F 33.8 °F 70% 30.02 in 10.0 mi WNW 3.5 mph - N/A   Overcast
6:55 PM 42.8 °F 41.1 °F 33.8 °F 70% 30.02 in 10.0 mi WNW 3.5 mph - N/A   Overcast
7:15 PM 42.8 °F 40.1 °F 35.6 °F 76% 30.03 in 10.0 mi West 4.6 mph - N/A   Overcast
7:35 PM 42.8 °F 41.1 °F 35.6 °F 76% 30.03 in 10.0 mi West 3.5 mph - N/A   Overcast
7:55 PM 42.8 °F 41.1 °F 35.6 °F 76% 30.03 in 10.0 mi West 3.5 mph - N/A   Overcast
8:15 PM 42.8 °F - 35.6 °F 76% 30.02 in 10.0 mi Calm Calm - N/A   Overcast
8:35 PM 41.0 °F 39.0 °F 35.6 °F 81% 30.02 in 10.0 mi West 3.5 mph - N/A   Overcast
8:55 PM 41.0 °F 39.0 °F 35.6 °F 81% 30.03 in 10.0 mi West 3.5 mph - N/A   Overcast
9:15 PM 41.0 °F 39.0 °F 35.6 °F 81% 30.03 in 10.0 mi West 3.5 mph - N/A   Overcast
9:35 PM 41.0 °F 38.0 °F 35.6 °F 81% 30.03 in 10.0 mi West 4.6 mph - N/A   Overcast
9:55 PM 41.0 °F 39.0 °F 35.6 °F 81% 30.03 in 10.0 mi West 3.5 mph - N/A   Overcast
10:15 PM 41.0 °F 37.1 °F 35.6 °F 81% 30.04 in 10.0 mi West 5.8 mph - N/A   Overcast
10:35 PM 41.0 °F 39.0 °F 35.6 °F 81% 30.03 in 10.0 mi West 3.5 mph - N/A   Overcast
10:55 PM 41.0 °F 39.0 °F 35.6 °F 81% 30.04 in 10.0 mi West 3.5 mph - N/A   Overcast
11:15 PM 41.0 °F 38.0 °F 35.6 °F 81% 30.04 in 10.0 mi West 4.6 mph - N/A   Overcast
11:35 PM 41.0 °F - 35.6 °F 81% 30.03 in 10.0 mi Calm Calm - N/A   Overcast
11:55 PM 41.0 °F 38.0 °F 35.6 °F 81% 30.05 in 10.0 mi West 4.6 mph - N/A   Overcast